Location: Boursonne
(49.2024°N, 3.0468°E)
Time: 03:33:44
(UTC+00:00)

Okean-O - Pass Details

Date: 03 March 2021
Orbit: 639 x 640 km, 98.2° (Epoch: 16 April)

Event Time Altitude Azimuth Distance (km) Brightness Sun altitude
Rises 18:22:17 0° 163° (SSE) 2,934 5.9 -8.6°
Reaches altitude 10° 18:24:29 10° 163° (SSE) 2,030 5.0 -9.0°
Maximum altitude 18:28:54 87° 75° (ENE) 649 2.6 -9.7°
Drops below altitude 10° 18:33:23 10° 347° (NNW) 2,045 5.4 -10.4°
Sets 18:35:35 0° 347° (NNW) 2,959 6.3 -10.8°
